Location: Newark
(54.6833°N, 25.2833°E)
Time: 03:38:57
(UTC+00:00)

Altair - Pass Details

Date: 21 November 2019
Orbit: 1502 x 1682 km, 47.2° (Epoch: 12 December)

Event Time Altitude Azimuth Distance (km) Brightness Sun altitude
Rises 22:45:46 0° 182° (S) 4,656 - -54.5°
Reaches altitude 10° 22:50:29 10° 161° (SSE) 3,659 - -54.3°
Maximum altitude 22:55:10 15° 130° (SE) 3,252 - -54.0°
Drops below altitude 10° 22:59:51 10° 98° (E) 3,656 - -53.8°
Exits shadow 23:01:25 - 90° (E) 3,941 9.8 -53.7°
Sets 23:04:32 0° 78° (ENE) 4,649 10.3 -53.5°
